Weather History for Gillette, WY

Change the Weather History Date:

Thursday, November 17, 2011

  Actual Average Record
Temperature  
Mean Temperature 34 °F 32 °F  
Max Temperature 50 °F 44 °F 72 °F (1999)
Min Temperature 17 °F 20 °F -15 °F (1955)
Degree Days  
Heating Degree Days 31 33  
Month to date heating degree days 526 495  
Since 1 July heating degree days 1211 1404  
Cooling Degree Days 0 0  
Month to date cooling degree days 0 0  
Year to date cooling degree days 561 502  
Moisture  
Dew Point 17 °F    
Average Humidity 52    
Maximum Humidity 69    
Minimum Humidity 34    
Precipitation  
Precipitation 0.00 in 0.02 in 0.17 in (1969)
Month to date precipitation 0.27 0.35  
Year to date precipitation 16.26 13.29  
Sea Level Pressure  
Sea Level Pressure 29.76 in    
Wind  
Wind Speed 16 mph (SSW)    
Max Wind Speed 31 mph    
Max Gust Speed 41 mph    
Visibility 10 miles    
Events      
T = Trace of Precipitation, MM = Missing Value Source: NWS Daily Summary

Daily Weather History Graph

Daily Weather History Graph

Search for Another Location

Airport:

Trip Planner

Search our weather history database for the weather conditions in past years. The results will help you decide how hot, cold, wet, or windy it might be!

Date:

Astronomy

Nov. 17, 2011 Rise Set
Actual Time 7:00 AM MST 4:33 PM MST
Civil Twilight 6:28 AM MST 5:04 PM MST
Nautical Twilight 5:53 AM MST 5:40 PM MST
Astronomical Twilight 5:19 AM MST 6:14 PM MST
Moon 11:01 PM MST (11/17) 12:06 PM MST (11/17)
Length of Visible Light 10h 35m
Length of Day
9h 32m
Waning Gibbous, 59% of the Moon is Illuminated
Nov 17
Waning Gibbous
Nov 18
Last Quarter
Nov 24
New
Dec 2
First Quarter
Dec 10
Full

Hourly Weather History & Observations

Time (MST) Temp. Windchill Dew Point Humidity Pressure Visibility Wind Dir Wind Speed Gust Speed Precip Events Conditions
12:53 AM 19.9 °F 11.1 °F 3.9 °F 50% 30.13 in 10.0 mi SE 6.9 mph - N/A   Clear
1:53 AM 23.0 °F 12.4 °F 3.2 °F 43% 29.98 in 10.0 mi SSW 10.4 mph - N/A   Clear
2:53 AM 21.0 °F 11.4 °F 5.0 °F 50% 30.05 in 10.0 mi South 8.1 mph - N/A   Clear
3:53 AM 19.0 °F 6.8 °F 6.1 °F 57% 30.02 in 10.0 mi ESE 11.5 mph - N/A   Clear
5:53 AM 28.9 °F 15.8 °F 8.1 °F 41% 29.93 in 10.0 mi SW 20.7 mph 28.8 mph N/A   Clear
6:53 AM 28.9 °F 16.1 °F 9.0 °F 43% 29.92 in 10.0 mi SW 19.6 mph 28.8 mph N/A   Clear
7:53 AM 32.0 °F 20.5 °F 10.9 °F 42% 29.90 in 10.0 mi SW 18.4 mph 27.6 mph N/A   Clear
8:53 AM 35.1 °F 23.5 °F 12.9 °F 40% 29.87 in 10.0 mi SW 21.9 mph 31.1 mph N/A   Clear
9:53 AM 39.2 °F 28.3 °F 15.8 °F 39% 29.72 in 10.0 mi SW 25.3 mph 34.5 mph N/A   Clear
10:53 AM 39.0 °F 28.5 °F 18.0 °F 43% 29.77 in 10.0 mi SSW 23.0 mph 31.1 mph N/A   Clear
11:53 AM 42.1 °F 31.7 °F 19.9 °F 41% 29.71 in 10.0 mi SW 27.6 mph 38.0 mph N/A   Partly Cloudy
12:53 PM 44.1 °F 34.8 °F 19.9 °F 38% 29.66 in 10.0 mi SW 25.3 mph 36.8 mph N/A   Clear
1:53 PM 46.9 °F - 21.9 °F 37% 29.62 in 10.0 mi SW 24.2 mph 38.0 mph N/A   Clear
2:53 PM 48.9 °F - 21.9 °F 35% 29.59 in 10.0 mi SW 29.9 mph 38.0 mph N/A   Clear
4:53 PM 48.0 °F - 24.1 °F 39% 29.60 in 10.0 mi SW 17.3 mph 26.5 mph N/A   Clear
5:53 PM 46.9 °F - 24.1 °F 41% 29.59 in 10.0 mi SW 12.7 mph - N/A   Clear
6:53 PM 46.0 °F 39.6 °F 24.1 °F 42% 29.59 in 10.0 mi SW 15.0 mph - N/A   Clear
7:53 PM 44.1 °F 37.7 °F 24.1 °F 45% 29.60 in 10.0 mi SW 12.7 mph - N/A   Clear
8:53 PM 39.0 °F 31.0 °F 23.0 °F 53% 29.63 in 10.0 mi North 13.8 mph 20.7 mph N/A   Mostly Cloudy
9:00 PM 37.4 °F 28.9 °F 23.0 °F 56% 29.62 in 10.0 mi NNE 13.8 mph - N/A   Mostly Cloudy
9:53 PM 34.0 °F 27.2 °F 23.0 °F 64% 29.67 in 10.0 mi NNE 8.1 mph - N/A   Clear
10:53 PM 30.0 °F 23.2 °F 21.9 °F 72% 29.66 in 10.0 mi NE 6.9 mph - N/A   Clear
11:53 PM 26.1 °F - 21.0 °F 81% 29.67 in 10.0 mi Calm Calm - N/A   Partly Cloudy